User: anonymous   Login
Location: *
(40.4270°N, 9.4940°E)
Time: 01:21:16
(UTC+01:00)
Language:

Okean 2 - Orbit

View from above orbital plane
View from above orbital plane
View from above satellite
View from above satellite

Ground track
Ground track

The orbit data is extracted from the following two-line orbital elements,

1 20510U 90018A   17080.91251420 +.00000491 +00000-0 +38428-4 0  9999
2 20510 082.5136 255.2415 0010780 277.9310 194.5973 14.98843141468373
Epoch (UTC): 21 March 2017 21:54:01
Eccentricity: 0.0010780
inclination: 82.5136°
perigee height: 563 km
apogee height: 578 km
right ascension of ascending node: 255.2415°
argument of perigee: 277.9310°
revolutions per day: 14.98843141
mean anomaly at epoch: 194.5973°
orbit number at epoch: 46837

The dashed part of the orbit path shows where the satellite is in the earth's shadow,  

DLR